TimeEDT,TemperatureF,Dew PointF,Humidity,Sea Level PressureIn,VisibilityMPH,Wind Direction,Wind SpeedMPH,Gust SpeedMPH,PrecipitationIn,Events,Conditions,WindDirDegrees,DateUTC
12:51 AM,62.1,48.9,62,30.17,10.0,East,6.9,-,N/A,,Overcast,80,2013-04-23 04:51:00
1:51 AM,60.1,46.9,62,30.17,10.0,ESE,8.1,-,N/A,,Scattered Clouds,110,2013-04-23 05:51:00
2:51 AM,59.0,46.0,62,30.16,10.0,ESE,6.9,-,N/A,,Overcast,110,2013-04-23 06:51:00
3:51 AM,57.0,44.1,62,30.14,10.0,East,6.9,-,N/A,,Partly Cloudy,90,2013-04-23 07:51:00
4:51 AM,55.9,42.1,60,30.15,10.0,East,5.8,-,N/A,,Clear,80,2013-04-23 08:51:00
5:51 AM,55.0,42.1,62,30.16,10.0,East,4.6,-,N/A,,Clear,80,2013-04-23 09:51:00
6:51 AM,54.0,39.9,59,30.17,10.0,East,6.9,-,N/A,,Clear,90,2013-04-23 10:51:00
7:51 AM,54.0,39.9,59,30.19,10.0,ESE,8.1,-,N/A,,Clear,110,2013-04-23 11:51:00
8:51 AM,55.9,39.9,55,30.19,10.0,East,10.4,-,N/A,,Clear,100,2013-04-23 12:51:00
9:51 AM,59.0,43.0,55,30.20,10.0,ESE,9.2,-,N/A,,Clear,120,2013-04-23 13:51:00
10:51 AM,64.9,45.0,48,30.20,10.0,SE,11.5,-,N/A,,Clear,140,2013-04-23 14:51:00
11:51 AM,68.0,45.0,43,30.19,10.0,SE,9.2,-,N/A,,Clear,140,2013-04-23 15:51:00
12:51 PM,70.0,45.0,41,30.17,10.0,Calm,Calm,-,N/A,,Clear,0,2013-04-23 16:51:00
1:51 PM,73.0,48.0,41,30.15,10.0,SSE,6.9,-,N/A,,Clear,160,2013-04-23 17:51:00
2:34 PM,75.2,46.4,36,30.14,10.0,NE,4.6,-,N/A,,Clear,50,2013-04-23 18:34:00
2:51 PM,75.0,48.9,40,30.12,10.0,East,6.9,-,N/A,,Clear,100,2013-04-23 18:51:00
3:51 PM,75.9,48.9,38,30.10,10.0,SE,8.1,-,N/A,,Clear,130,2013-04-23 19:51:00
4:51 PM,78.1,48.9,36,30.08,10.0,ESE,8.1,-,N/A,,Clear,110,2013-04-23 20:51:00
5:51 PM,77.0,48.9,37,30.06,10.0,South,5.8,-,N/A,,Clear,190,2013-04-23 21:51:00
6:51 PM,75.9,48.9,38,30.06,10.0,SSE,4.6,-,N/A,,Clear,160,2013-04-23 22:51:00
7:51 PM,73.9,50.0,43,30.06,10.0,South,6.9,-,N/A,,Partly Cloudy,170,2013-04-23 23:51:00
8:51 PM,70.0,51.1,51,30.08,10.0,SE,5.8,-,N/A,,Clear,140,2013-04-24 00:51:00
9:51 PM,68.0,52.0,56,30.09,10.0,SSE,5.8,-,N/A,,Clear,150,2013-04-24 01:51:00
10:51 PM,66.0,51.1,59,30.10,10.0,SE,4.6,-,N/A,,Clear,140,2013-04-24 02:51:00
11:51 PM,64.9,52.0,63,30.10,10.0,Calm,Calm,-,N/A,,Clear,0,2013-04-24 03:51:00